Time,TemperatureF,DewpointF,PressureIn,WindDirection,WindDirectionDegrees,WindSpeedMPH,WindSpeedGustMPH,Humidity,HourlyPrecipIn,Conditions,Clouds,dailyrainin,SoftwareType,DateUTC
2015-05-28 00:04:00,77.8,67.2,30.10,NNE,32,0.0,0.0,70,0.00,,,0.00,WeatherTracker,2015-05-28 04:04:00,
2015-05-28 00:09:00,77.6,67.0,30.09,NNE,18,2.0,0.0,70,0.00,,,0.00,WeatherTracker,2015-05-28 04:09:00,
2015-05-28 00:14:00,77.4,66.4,30.09,NNE,24,0.0,0.0,69,0.00,,,0.00,WeatherTracker,2015-05-28 04:14:00,
2015-05-28 00:19:00,77.4,66.4,30.09,NE,46,0.0,0.0,69,0.00,,,0.00,WeatherTracker,2015-05-28 04:19:00,
2015-05-28 00:24:00,77.3,65.9,30.09,East,86,0.0,0.0,68,0.00,,,0.00,WeatherTracker,2015-05-28 04:24:00,
2015-05-28 00:29:00,77.2,66.2,30.09,NE,53,1.0,0.0,69,0.00,,,0.00,WeatherTracker,2015-05-28 04:29:00,
2015-05-28 00:35:00,77.1,66.1,30.09,NE,53,1.0,0.0,69,0.00,,,0.00,WeatherTracker,2015-05-28 04:35:00,
2015-05-28 00:40:00,77.1,66.1,30.09,ENE,74,0.0,0.0,69,0.00,,,0.00,WeatherTracker,2015-05-28 04:40:00,
2015-05-28 00:45:00,77.0,66.0,30.09,East,89,1.0,0.0,69,0.00,,,0.00,WeatherTracker,2015-05-28 04:45:00,
2015-05-28 00:50:00,77.0,66.0,30.10,East,97,0.0,0.0,69,0.00,,,0.00,WeatherTracker,2015-05-28 04:50:00,
2015-05-28 00:55:00,77.0,66.0,30.09,ENE,74,1.0,0.0,69,0.00,,,0.00,WeatherTracker,2015-05-28 04:55:00,
2015-05-28 01:00:00,76.8,65.8,30.09,East,91,0.0,0.0,69,0.00,,,0.00,WeatherTracker,2015-05-28 05:00:00,
2015-05-28 01:05:00,76.8,65.8,30.09,ENE,78,2.0,0.0,69,0.00,,,0.00,WeatherTracker,2015-05-28 05:05:00,
2015-05-28 01:10:00,76.8,65.8,30.09,SSE,150,0.0,0.0,69,0.00,,,0.00,WeatherTracker,2015-05-28 05:10:00,
2015-05-28 01:15:00,76.9,66.4,30.08,ESE,115,0.0,0.0,70,0.00,,,0.00,WeatherTracker,2015-05-28 05:15:00,
2015-05-28 01:20:00,76.9,66.4,30.08,East,84,0.0,0.0,70,0.00,,,0.00,WeatherTracker,2015-05-28 05:20:00,
2015-05-28 01:25:00,76.8,66.7,30.07,ESE,117,0.0,0.0,71,0.00,,,0.00,WeatherTracker,2015-05-28 05:25:00,
2015-05-28 01:30:00,76.8,67.1,30.07,East,80,2.0,0.0,72,0.00,,,0.00,WeatherTracker,2015-05-28 05:30:00,
2015-05-28 01:35:00,76.7,67.0,30.07,East,98,0.0,0.0,72,0.00,,,0.00,WeatherTracker,2015-05-28 05:35:00,
2015-05-28 01:40:00,76.7,67.4,30.07,ENE,77,0.0,0.0,73,0.00,,,0.00,WeatherTracker,2015-05-28 05:40:00,
2015-05-28 01:45:00,76.8,67.5,30.07,ENE,69,1.0,0.0,73,0.00,,,0.00,WeatherTracker,2015-05-28 05:45:00,
2015-05-28 01:50:00,76.7,67.8,30.07,ENE,75,0.0,0.0,74,0.00,,,0.00,WeatherTracker,2015-05-28 05:50:00,
2015-05-28 01:55:00,76.7,68.2,30.07,SE,129,0.0,0.0,75,0.00,,,0.00,WeatherTracker,2015-05-28 05:55:00,
2015-05-28 02:01:00,76.7,68.2,30.07,ENE,72,0.0,0.0,75,0.00,,,0.00,WeatherTracker,2015-05-28 06:01:00,
2015-05-28 02:06:00,76.6,68.1,30.06,ESE,113,0.0,0.0,75,0.00,,,0.00,WeatherTracker,2015-05-28 06:06:00,
2015-05-28 02:11:00,76.4,67.9,30.06,ENE,74,3.0,0.0,75,0.00,,,0.00,WeatherTracker,2015-05-28 06:11:00,
2015-05-28 02:16:00,76.3,67.8,30.06,ESE,123,0.0,0.0,75,0.00,,,0.00,WeatherTracker,2015-05-28 06:16:00,
2015-05-28 02:21:00,76.2,67.7,30.06,ESE,105,0.0,0.0,75,0.00,,,0.00,WeatherTracker,2015-05-28 06:21:00,
2015-05-28 02:26:00,76.2,67.3,30.06,ESE,103,2.0,0.0,74,0.00,,,0.00,WeatherTracker,2015-05-28 06:26:00,
2015-05-28 02:31:00,76.3,67.0,30.06,ESE,123,0.0,0.0,73,0.00,,,0.00,WeatherTracker,2015-05-28 06:31:00,
2015-05-28 02:36:00,76.4,67.1,30.05,SE,129,0.0,0.0,73,0.00,,,0.00,WeatherTracker,2015-05-28 06:36:00,
2015-05-28 02:41:00,76.3,67.0,30.05,ESE,115,0.0,0.0,73,0.00,,,0.00,WeatherTracker,2015-05-28 06:41:00,
2015-05-28 02:46:00,76.2,66.9,30.05,East,91,0.0,0.0,73,0.00,,,0.00,WeatherTracker,2015-05-28 06:46:00,
2015-05-28 02:51:00,76.3,67.0,30.05,ESE,115,0.0,0.0,73,0.00,,,0.00,WeatherTracker,2015-05-28 06:51:00,
2015-05-28 02:56:00,76.3,67.0,30.05,East,99,2.0,0.0,73,0.00,,,0.00,WeatherTracker,2015-05-28 06:56:00,
2015-05-28 03:01:00,76.3,67.0,30.05,ESE,106,2.0,0.0,73,0.00,,,0.00,WeatherTracker,2015-05-28 07:01:00,
2015-05-28 03:06:00,76.5,66.8,30.04,ESE,110,5.0,0.0,72,0.00,,,0.00,WeatherTracker,2015-05-28 07:06:00,
2015-05-28 03:11:00,76.8,67.1,30.04,ESE,104,2.0,0.0,72,0.00,,,0.00,WeatherTracker,2015-05-28 07:11:00,
2015-05-28 03:16:00,76.9,66.4,30.04,SSE,150,1.0,0.0,70,0.00,,,0.00,WeatherTracker,2015-05-28 07:16:00,
2015-05-28 03:21:00,77.0,66.4,30.05,ESE,102,4.0,0.0,70,0.00,,,0.00,WeatherTracker,2015-05-28 07:21:00,
2015-05-28 03:26:00,77.0,66.4,30.05,NNE,28,0.0,0.0,70,0.00,,,0.00,WeatherTracker,2015-05-28 07:26:00,
2015-05-28 03:31:00,76.8,65.8,30.04,ESE,107,1.0,0.0,69,0.00,,,0.00,WeatherTracker,2015-05-28 07:31:00,
2015-05-28 03:36:00,76.7,65.3,30.04,East,82,2.0,0.0,68,0.00,,,0.00,WeatherTracker,2015-05-28 07:36:00,
2015-05-28 03:41:00,76.7,64.9,30.04,East,90,4.0,0.0,67,0.00,,,0.00,WeatherTracker,2015-05-28 07:41:00,
2015-05-28 03:46:00,76.6,65.2,30.04,East,100,1.0,0.0,68,0.00,,,0.00,WeatherTracker,2015-05-28 07:46:00,
2015-05-28 03:51:00,76.4,65.0,30.04,ESE,113,0.0,0.0,68,0.00,,,0.00,WeatherTracker,2015-05-28 07:51:00,
2015-05-28 03:57:00,76.2,65.3,30.04,East,83,0.0,0.0,69,0.00,,,0.00,WeatherTracker,2015-05-28 07:57:00,
2015-05-28 04:02:00,76.1,65.6,30.04,ESE,111,0.0,0.0,70,0.00,,,0.00,WeatherTracker,2015-05-28 08:02:00,
2015-05-28 04:07:00,75.9,65.8,30.04,SE,133,0.0,0.0,71,0.00,,,0.00,WeatherTracker,2015-05-28 08:07:00,
2015-05-28 04:12:00,75.9,65.8,30.04,ESE,119,1.0,0.0,71,0.00,,,0.00,WeatherTracker,2015-05-28 08:12:00,
2015-05-28 04:17:00,75.9,65.8,30.04,East,96,2.0,0.0,71,0.00,,,0.00,WeatherTracker,2015-05-28 08:17:00,
2015-05-28 04:22:00,75.8,65.7,30.04,East,82,0.0,0.0,71,0.00,,,0.00,WeatherTracker,2015-05-28 08:22:00,
2015-05-28 04:27:00,75.8,65.7,30.04,East,82,2.0,0.0,71,0.00,,,0.00,WeatherTracker,2015-05-28 08:27:00,
2015-05-28 04:32:00,75.8,65.7,30.04,East,84,0.0,0.0,71,0.00,,,0.00,WeatherTracker,2015-05-28 08:32:00,
2015-05-28 04:37:00,75.7,66.0,30.05,ESE,102,0.0,0.0,72,0.00,,,0.00,WeatherTracker,2015-05-28 08:37:00,
2015-05-28 04:42:00,75.7,66.0,30.04,SE,144,0.0,0.0,72,0.00,,,0.00,WeatherTracker,2015-05-28 08:42:00,
2015-05-28 04:47:00,75.6,65.9,30.04,East,94,0.0,0.0,72,0.00,,,0.00,WeatherTracker,2015-05-28 08:47:00,
2015-05-28 04:52:00,75.5,65.8,30.05,East,97,0.0,0.0,72,0.00,,,0.00,WeatherTracker,2015-05-28 08:52:00,
2015-05-28 04:57:00,75.5,66.2,30.05,SSE,152,0.0,0.0,73,0.00,,,0.00,WeatherTracker,2015-05-28 08:57:00,
2015-05-28 05:02:00,75.5,66.2,30.05,ESE,107,0.0,0.0,73,0.00,,,0.00,WeatherTracker,2015-05-28 09:02:00,
2015-05-28 05:07:00,75.5,66.2,30.04,ESE,107,0.0,0.0,73,0.00,,,0.00,WeatherTracker,2015-05-28 09:07:00,
2015-05-28 05:12:00,75.6,66.3,30.05,ENE,76,0.0,0.0,73,0.00,,,0.00,WeatherTracker,2015-05-28 09:12:00,
2015-05-28 05:17:00,75.7,66.4,30.05,ENE,73,0.0,0.0,73,0.00,,,0.00,WeatherTracker,2015-05-28 09:17:00,
2015-05-28 05:22:00,75.6,66.3,30.05,SE,133,2.0,0.0,73,0.00,,,0.00,WeatherTracker,2015-05-28 09:22:00,
2015-05-28 05:27:00,75.6,66.3,30.05,ESE,103,0.0,0.0,73,0.00,,,0.00,WeatherTracker,2015-05-28 09:27:00,
2015-05-28 05:33:00,75.4,66.5,30.05,NNW,329,0.0,0.0,74,0.00,,,0.00,WeatherTracker,2015-05-28 09:33:00,
2015-05-28 05:38:00,75.4,66.5,30.05,East,94,1.0,0.0,74,0.00,,,0.00,WeatherTracker,2015-05-28 09:38:00,
2015-05-28 05:43:00,75.3,66.4,30.05,East,98,1.0,0.0,74,0.00,,,0.00,WeatherTracker,2015-05-28 09:43:00,
2015-05-28 05:48:00,75.5,66.6,30.05,SE,141,5.0,0.0,74,0.00,,,0.00,WeatherTracker,2015-05-28 09:48:00,
2015-05-28 05:53:00,75.5,66.6,30.05,East,84,0.0,0.0,74,0.00,,,0.00,WeatherTracker,2015-05-28 09:53:00,
2015-05-28 05:58:00,75.5,66.6,30.05,East,88,0.0,0.0,74,0.00,,,0.00,WeatherTracker,2015-05-28 09:58:00,
2015-05-28 06:03:00,75.4,66.9,30.05,ESE,103,2.0,0.0,75,0.00,,,0.00,WeatherTracker,2015-05-28 10:03:00,
2015-05-28 06:08:00,75.4,66.5,30.05,ESE,110,0.0,0.0,74,0.00,,,0.00,WeatherTracker,2015-05-28 10:08:00,
2015-05-28 06:13:00,75.3,66.8,30.06,ENE,77,0.0,0.0,75,0.00,,,0.00,WeatherTracker,2015-05-28 10:13:00,
2015-05-28 06:18:00,75.2,66.7,30.06,ENE,58,0.0,0.0,75,0.00,,,0.00,WeatherTracker,2015-05-28 10:18:00,
2015-05-28 06:23:00,75.1,66.6,30.06,NE,40,0.0,0.0,75,0.00,,,0.00,WeatherTracker,2015-05-28 10:23:00,
2015-05-28 06:28:00,75.1,66.6,30.06,NE,55,0.0,0.0,75,0.00,,,0.00,WeatherTracker,2015-05-28 10:28:00,
2015-05-28 06:38:00,75.3,66.8,30.06,ENE,67,1.0,0.0,75,0.00,,,0.00,WeatherTracker,2015-05-28 10:38:00,
2015-05-28 06:43:00,75.2,66.7,30.06,NNE,30,1.0,0.0,75,0.00,,,0.00,WeatherTracker,2015-05-28 10:43:00,
2015-05-28 06:48:00,75.3,66.8,30.06,East,82,0.0,0.0,75,0.00,,,0.00,WeatherTracker,2015-05-28 10:48:00,
2015-05-28 06:53:00,75.3,66.8,30.05,East,84,0.0,0.0,75,0.00,,,0.00,WeatherTracker,2015-05-28 10:53:00,
2015-05-28 06:58:00,75.4,67.3,30.06,East,100,0.0,0.0,76,0.00,,,0.00,WeatherTracker,2015-05-28 10:58:00,
2015-05-28 07:04:00,75.6,67.5,30.06,SE,133,1.0,0.0,76,0.00,,,0.00,WeatherTracker,2015-05-28 11:04:00,
2015-05-28 07:09:00,75.9,67.8,30.06,SE,128,0.0,0.0,76,0.00,,,0.00,WeatherTracker,2015-05-28 11:09:00,
2015-05-28 07:14:00,76.1,67.6,30.06,NE,36,0.0,0.0,75,0.00,,,0.00,WeatherTracker,2015-05-28 11:14:00,
2015-05-28 07:19:00,76.4,67.9,30.06,ESE,109,0.0,0.0,75,0.00,,,0.00,WeatherTracker,2015-05-28 11:19:00,
2015-05-28 07:24:00,77.0,67.7,30.06,ENE,59,2.0,0.0,73,0.00,,,0.00,WeatherTracker,2015-05-28 11:24:00,
2015-05-28 07:29:00,77.3,67.1,30.06,NE,49,2.0,0.0,71,0.00,,,0.00,WeatherTracker,2015-05-28 11:29:00,
2015-05-28 07:34:00,77.5,66.9,30.06,NE,46,0.0,0.0,70,0.00,,,0.00,WeatherTracker,2015-05-28 11:34:00,
2015-05-28 07:39:00,78.1,67.1,30.07,East,86,5.0,0.0,69,0.00,,,0.00,WeatherTracker,2015-05-28 11:39:00,
2015-05-28 07:44:00,78.6,67.1,30.06,ENE,69,4.0,0.0,68,0.00,,,0.00,WeatherTracker,2015-05-28 11:44:00,
2015-05-28 07:49:00,79.0,67.5,30.07,East,79,5.0,0.0,68,0.00,,,0.00,WeatherTracker,2015-05-28 11:49:00,
2015-05-28 07:54:00,79.2,66.8,30.06,NE,36,3.0,0.0,66,0.00,,,0.00,WeatherTracker,2015-05-28 11:54:00,
2015-05-28 07:59:00,79.2,66.4,30.07,NE,42,2.0,0.0,65,0.00,,,0.00,WeatherTracker,2015-05-28 11:59:00,
2015-05-28 08:04:00,79.4,66.1,30.07,ENE,75,3.0,0.0,64,0.00,,,0.00,WeatherTracker,2015-05-28 12:04:00,
2015-05-28 08:09:00,79.6,66.3,30.07,East,79,4.0,0.0,64,0.00,,,0.00,WeatherTracker,2015-05-28 12:09:00,
2015-05-28 08:14:00,79.8,66.5,30.07,ENE,58,4.0,0.0,64,0.00,,,0.00,WeatherTracker,2015-05-28 12:14:00,
2015-05-28 08:19:00,79.9,67.5,30.07,NNE,28,8.0,0.0,66,0.00,,,0.00,WeatherTracker,2015-05-28 12:19:00,
2015-05-28 08:24:00,79.9,67.5,30.07,ENE,61,5.0,0.0,66,0.00,,,0.00,WeatherTracker,2015-05-28 12:24:00,
2015-05-28 08:29:00,80.0,68.0,30.07,East,84,3.0,0.0,67,0.00,,,0.00,WeatherTracker,2015-05-28 12:29:00,
2015-05-28 08:34:00,80.0,68.0,30.07,ENE,74,0.0,0.0,67,0.00,,,0.00,WeatherTracker,2015-05-28 12:34:00,
2015-05-28 08:39:00,80.1,68.6,30.07,ESE,123,2.0,0.0,68,0.00,,,0.00,WeatherTracker,2015-05-28 12:39:00,
2015-05-28 08:45:00,79.9,68.4,30.08,East,101,2.0,0.0,68,0.00,,,0.00,WeatherTracker,2015-05-28 12:45:00,
2015-05-28 08:50:00,79.7,68.6,30.08,ENE,78,12.0,0.0,69,0.00,,,0.00,WeatherTracker,2015-05-28 12:50:00,
2015-05-28 08:55:00,80.0,69.3,30.08,East,83,1.0,0.0,70,0.00,,,0.00,WeatherTracker,2015-05-28 12:55:00,
2015-05-28 09:00:00,80.2,68.7,30.08,East,88,2.0,0.0,68,0.00,,,0.00,WeatherTracker,2015-05-28 13:00:00,
2015-05-28 09:05:00,80.7,67.8,30.08,ENE,73,3.0,0.0,65,0.00,,,0.00,WeatherTracker,2015-05-28 13:05:00,
2015-05-28 09:10:00,80.7,67.4,30.08,ESE,112,13.0,0.0,64,0.00,,,0.00,WeatherTracker,2015-05-28 13:10:00,
2015-05-28 09:15:00,80.8,67.5,30.08,South,172,0.0,0.0,64,0.00,,,0.00,WeatherTracker,2015-05-28 13:15:00,
2015-05-28 09:20:00,81.2,68.7,30.08,East,88,2.0,0.0,66,0.00,,,0.00,WeatherTracker,2015-05-28 13:20:00,
2015-05-28 09:25:00,81.3,68.4,30.08,SE,144,12.0,0.0,65,0.00,,,0.00,WeatherTracker,2015-05-28 13:25:00,
2015-05-28 09:30:00,81.2,67.8,30.08,ENE,58,5.0,0.0,64,0.00,,,0.00,WeatherTracker,2015-05-28 13:30:00,
2015-05-28 09:35:00,81.1,66.4,30.08,ESE,111,7.0,0.0,61,0.00,,,0.00,WeatherTracker,2015-05-28 13:35:00,
2015-05-28 09:40:00,81.2,66.0,30.09,South,171,4.0,0.0,60,0.00,,,0.00,WeatherTracker,2015-05-28 13:40:00,
2015-05-28 09:45:00,81.7,66.4,30.09,ENE,58,3.0,0.0,60,0.00,,,0.00,WeatherTracker,2015-05-28 13:45:00,
2015-05-28 09:50:00,82.1,67.3,30.09,ENE,75,1.0,0.0,61,0.00,,,0.00,WeatherTracker,2015-05-28 13:50:00,
2015-05-28 09:55:00,82.2,66.4,30.09,NE,51,7.0,0.0,59,0.00,,,0.00,WeatherTracker,2015-05-28 13:55:00,
2015-05-28 10:00:00,81.7,66.4,30.09,NE,49,2.0,0.0,60,0.00,,,0.00,WeatherTracker,2015-05-28 14:00:00,
2015-05-28 10:05:00,82.0,68.1,30.09,ENE,71,4.0,0.0,63,0.00,,,0.00,WeatherTracker,2015-05-28 14:05:00,
2015-05-28 10:10:00,82.6,67.8,30.09,ENE,69,8.0,0.0,61,0.00,,,0.00,WeatherTracker,2015-05-28 14:10:00,
2015-05-28 10:16:00,82.4,68.0,30.09,SSE,155,7.0,0.0,62,0.00,,,0.00,WeatherTracker,2015-05-28 14:16:00,
2015-05-28 10:21:00,82.2,68.3,30.09,East,92,6.0,0.0,63,0.00,,,0.00,WeatherTracker,2015-05-28 14:21:00,
2015-05-28 10:26:00,82.4,68.5,30.09,NE,45,5.0,0.0,63,0.00,,,0.00,WeatherTracker,2015-05-28 14:26:00,
2015-05-28 10:31:00,82.2,67.9,30.09,East,90,4.0,0.0,62,0.00,,,0.00,WeatherTracker,2015-05-28 14:31:00,
2015-05-28 10:36:00,82.5,68.6,30.09,SE,125,4.0,0.0,63,0.00,,,0.00,WeatherTracker,2015-05-28 14:36:00,
2015-05-28 10:41:00,82.6,68.2,30.09,SSE,152,2.0,0.0,62,0.00,,,0.00,WeatherTracker,2015-05-28 14:41:00,
2015-05-28 10:46:00,82.9,68.0,30.09,ENE,57,8.0,0.0,61,0.00,,,0.00,WeatherTracker,2015-05-28 14:46:00,
2015-05-28 10:51:00,82.8,67.9,30.09,ENE,67,1.0,0.0,61,0.00,,,0.00,WeatherTracker,2015-05-28 14:51:00,
2015-05-28 10:56:00,83.4,69.0,30.09,East,79,3.0,0.0,62,0.00,,,0.00,WeatherTracker,2015-05-28 14:56:00,
2015-05-28 11:01:00,83.0,68.6,30.09,NE,53,8.0,0.0,62,0.00,,,0.00,WeatherTracker,2015-05-28 15:01:00,
2015-05-28 11:06:00,82.4,68.5,30.09,East,93,5.0,0.0,63,0.00,,,0.00,WeatherTracker,2015-05-28 15:06:00,
2015-05-28 11:11:00,82.5,68.1,30.09,East,81,1.0,0.0,62,0.00,,,0.00,WeatherTracker,2015-05-28 15:11:00,
2015-05-28 11:16:00,82.8,67.9,30.10,SE,137,5.0,0.0,61,0.00,,,0.00,WeatherTracker,2015-05-28 15:16:00,
2015-05-28 11:21:00,82.9,68.0,30.10,ESE,103,4.0,0.0,61,0.00,,,0.00,WeatherTracker,2015-05-28 15:21:00,
2015-05-28 11:26:00,83.0,68.1,30.09,ESE,108,13.0,0.0,61,0.00,,,0.00,WeatherTracker,2015-05-28 15:26:00,
2015-05-28 11:36:00,83.0,69.1,30.09,ENE,71,2.0,0.0,63,0.00,,,0.00,WeatherTracker,2015-05-28 15:36:00,
2015-05-28 11:41:00,83.1,68.2,30.09,NE,49,2.0,0.0,61,0.00,,,0.00,WeatherTracker,2015-05-28 15:41:00,
2015-05-28 11:46:00,83.1,69.2,30.09,East,98,9.0,0.0,63,0.00,,,0.00,WeatherTracker,2015-05-28 15:46:00,
2015-05-28 11:51:00,83.6,69.2,30.09,ENE,78,2.0,0.0,62,0.00,,,0.00,WeatherTracker,2015-05-28 15:51:00,
2015-05-28 11:56:00,83.3,69.4,30.09,East,95,7.0,0.0,63,0.00,,,0.00,WeatherTracker,2015-05-28 15:56:00,
2015-05-28 12:02:00,83.0,69.1,30.09,NE,44,0.0,0.0,63,0.00,,,0.00,WeatherTracker,2015-05-28 16:02:00,
2015-05-28 12:07:00,83.0,70.0,30.09,East,80,3.0,0.0,65,0.00,,,0.00,WeatherTracker,2015-05-28 16:07:00,
2015-05-28 12:12:00,82.9,69.0,30.09,ENE,67,4.0,0.0,63,0.00,,,0.00,WeatherTracker,2015-05-28 16:12:00,
2015-05-28 12:17:00,82.8,69.4,30.09,ENE,58,3.0,0.0,64,0.00,,,0.00,WeatherTracker,2015-05-28 16:17:00,
2015-05-28 12:22:00,82.6,70.1,30.09,NNW,342,0.0,0.0,66,0.00,,,0.00,WeatherTracker,2015-05-28 16:22:00,
2015-05-28 12:27:00,82.2,70.1,30.09,NNE,20,2.0,0.0,67,0.00,,,0.00,WeatherTracker,2015-05-28 16:27:00,
2015-05-28 12:32:00,82.5,70.8,30.09,NE,49,2.0,0.0,68,0.00,,,0.00,WeatherTracker,2015-05-28 16:32:00,
2015-05-28 12:37:00,83.2,69.7,30.09,SSW,204,5.0,0.0,64,0.00,,,0.00,WeatherTracker,2015-05-28 16:37:00,
2015-05-28 12:42:00,82.9,69.4,30.09,NE,55,10.0,0.0,64,0.00,,,0.00,WeatherTracker,2015-05-28 16:42:00,
2015-05-28 12:47:00,81.9,70.7,30.08,ENE,63,2.0,0.0,69,0.00,,,0.00,WeatherTracker,2015-05-28 16:47:00,
2015-05-28 12:52:00,80.8,70.9,30.08,East,88,3.0,0.0,72,0.00,,,0.00,WeatherTracker,2015-05-28 16:52:00,
2015-05-28 12:57:00,80.9,71.4,30.08,NE,51,2.0,0.0,73,0.00,,,0.00,WeatherTracker,2015-05-28 16:57:00,
2015-05-28 13:02:00,81.4,70.2,30.08,ENE,59,2.0,0.0,69,0.00,,,0.00,WeatherTracker,2015-05-28 17:02:00,
2015-05-28 13:07:00,82.2,70.6,30.08,ESE,116,8.0,0.0,68,0.00,,,0.00,WeatherTracker,2015-05-28 17:07:00,
2015-05-28 13:12:00,83.0,70.9,30.08,NE,35,2.0,0.0,67,0.00,,,0.00,WeatherTracker,2015-05-28 17:12:00,
2015-05-28 13:17:00,83.4,69.9,30.08,ESE,119,2.0,0.0,64,0.00,,,0.00,WeatherTracker,2015-05-28 17:17:00,
2015-05-28 13:22:00,83.4,69.9,30.08,ESE,119,2.0,0.0,64,0.00,,,0.00,WeatherTracker,2015-05-28 17:22:00,
2015-05-28 13:27:00,83.5,70.0,30.08,ENE,71,3.0,0.0,64,0.00,,,0.00,WeatherTracker,2015-05-28 17:27:00,
2015-05-28 13:37:00,82.1,70.0,30.07,ENE,71,4.0,0.0,67,0.00,,,0.00,WeatherTracker,2015-05-28 17:37:00,
2015-05-28 13:42:00,81.9,70.7,30.07,NE,38,4.0,0.0,69,0.00,,,0.00,WeatherTracker,2015-05-28 17:42:00,
2015-05-28 13:47:00,82.0,70.8,30.07,East,84,4.0,0.0,69,0.00,,,0.00,WeatherTracker,2015-05-28 17:47:00,
2015-05-28 13:52:00,81.7,70.5,30.07,East,93,1.0,0.0,69,0.00,,,0.00,WeatherTracker,2015-05-28 17:52:00,
2015-05-28 13:57:00,82.1,70.5,30.07,East,98,8.0,0.0,68,0.00,,,0.00,WeatherTracker,2015-05-28 17:57:00,
2015-05-28 14:02:00,82.6,70.9,30.07,East,84,5.0,0.0,68,0.00,,,0.00,WeatherTracker,2015-05-28 18:02:00,
2015-05-28 14:07:00,83.6,71.0,30.07,NE,42,3.0,0.0,66,0.00,,,0.00,WeatherTracker,2015-05-28 18:07:00,
2015-05-28 14:13:00,83.7,69.3,30.07,East,93,7.0,0.0,62,0.00,,,0.00,WeatherTracker,2015-05-28 18:13:00,
2015-05-28 14:18:00,83.9,70.4,30.07,NNE,32,5.0,0.0,64,0.00,,,0.00,WeatherTracker,2015-05-28 18:18:00,
2015-05-28 14:23:00,84.4,70.9,30.07,East,81,7.0,0.0,64,0.00,,,0.00,WeatherTracker,2015-05-28 18:23:00,
2015-05-28 14:28:00,83.6,70.6,30.07,SSE,159,1.0,0.0,65,0.00,,,0.00,WeatherTracker,2015-05-28 18:28:00,
2015-05-28 14:33:00,83.7,70.7,30.07,ENE,62,3.0,0.0,65,0.00,,,0.00,WeatherTracker,2015-05-28 18:33:00,
2015-05-28 14:38:00,83.9,70.4,30.07,East,81,10.0,0.0,64,0.00,,,0.00,WeatherTracker,2015-05-28 18:38:00,
2015-05-28 14:43:00,84.3,70.8,30.07,NNW,348,0.0,0.0,64,0.00,,,0.00,WeatherTracker,2015-05-28 18:43:00,
2015-05-28 14:48:00,84.0,70.5,30.06,ENE,78,3.0,0.0,64,0.00,,,0.00,WeatherTracker,2015-05-28 18:48:00,
2015-05-28 14:53:00,83.5,70.5,30.07,NE,50,7.0,0.0,65,0.00,,,0.00,WeatherTracker,2015-05-28 18:53:00,
2015-05-28 14:58:00,83.1,70.1,30.07,ENE,70,4.0,0.0,65,0.00,,,0.00,WeatherTracker,2015-05-28 18:58:00,
2015-05-28 15:03:00,82.7,69.7,30.06,NE,41,7.0,0.0,65,0.00,,,0.00,WeatherTracker,2015-05-28 19:03:00,
2015-05-28 15:08:00,83.2,70.2,30.06,East,98,12.0,0.0,65,0.00,,,0.00,WeatherTracker,2015-05-28 19:08:00,
2015-05-28 15:13:00,83.6,70.6,30.06,NW,322,6.0,0.0,65,0.00,,,0.00,WeatherTracker,2015-05-28 19:13:00,
2015-05-28 15:18:00,83.4,70.4,30.06,SSE,164,8.0,0.0,65,0.00,,,0.00,WeatherTracker,2015-05-28 19:18:00,
2015-05-28 15:24:00,83.1,70.1,30.05,NE,38,3.0,0.0,65,0.00,,,0.00,WeatherTracker,2015-05-28 19:24:00,
2015-05-28 15:29:00,82.7,70.2,30.05,ENE,69,1.0,0.0,66,0.00,,,0.00,WeatherTracker,2015-05-28 19:29:00,
2015-05-28 15:34:00,82.7,70.2,30.05,ENE,76,2.0,0.0,66,0.00,,,0.00,WeatherTracker,2015-05-28 19:34:00,
2015-05-28 15:39:00,83.2,69.7,30.05,ENE,74,5.0,0.0,64,0.00,,,0.00,WeatherTracker,2015-05-28 19:39:00,
2015-05-28 15:44:00,83.3,70.3,30.05,East,99,5.0,0.0,65,0.00,,,0.00,WeatherTracker,2015-05-28 19:44:00,
2015-05-28 15:49:00,83.2,69.7,30.05,NE,55,8.0,0.0,64,0.00,,,0.00,WeatherTracker,2015-05-28 19:49:00,
2015-05-28 15:54:00,83.2,70.2,30.05,ENE,78,4.0,0.0,65,0.00,,,0.00,WeatherTracker,2015-05-28 19:54:00,
2015-05-28 15:59:00,83.4,70.4,30.05,East,86,2.0,0.0,65,0.00,,,0.00,WeatherTracker,2015-05-28 19:59:00,
2015-05-28 16:04:00,83.7,70.2,30.05,NE,51,5.0,0.0,64,0.00,,,0.00,WeatherTracker,2015-05-28 20:04:00,
2015-05-28 16:09:00,83.0,70.0,30.05,East,81,3.0,0.0,65,0.00,,,0.00,WeatherTracker,2015-05-28 20:09:00,
2015-05-28 16:14:00,82.7,70.2,30.05,NE,43,3.0,0.0,66,0.00,,,0.00,WeatherTracker,2015-05-28 20:14:00,
2015-05-28 16:19:00,82.8,69.8,30.05,NNW,337,4.0,0.0,65,0.00,,,0.00,WeatherTracker,2015-05-28 20:19:00,
2015-05-28 16:24:00,83.0,70.0,30.04,ESE,107,7.0,0.0,65,0.00,,,0.00,WeatherTracker,2015-05-28 20:24:00,
2015-05-28 16:29:00,82.8,69.4,30.05,NNW,338,4.0,0.0,64,0.00,,,0.00,WeatherTracker,2015-05-28 20:29:00,
2015-05-28 16:34:00,82.7,68.8,30.05,East,94,5.0,0.0,63,0.00,,,0.00,WeatherTracker,2015-05-28 20:34:00,
2015-05-28 16:39:00,82.3,68.9,30.05,ENE,58,4.0,0.0,64,0.00,,,0.00,WeatherTracker,2015-05-28 20:39:00,
2015-05-28 16:44:00,82.7,69.7,30.05,SE,127,8.0,0.0,65,0.00,,,0.00,WeatherTracker,2015-05-28 20:44:00,
2015-05-28 16:50:00,82.9,69.0,30.04,NNE,17,3.0,0.0,63,0.00,,,0.00,WeatherTracker,2015-05-28 20:50:00,
2015-05-28 16:55:00,83.3,69.8,30.04,ENE,69,2.0,0.0,64,0.00,,,0.00,WeatherTracker,2015-05-28 20:55:00,
2015-05-28 17:00:00,82.8,69.4,30.04,SE,136,5.0,0.0,64,0.00,,,0.00,WeatherTracker,2015-05-28 21:00:00,
2015-05-28 17:05:00,82.3,69.8,30.04,ENE,67,1.0,0.0,66,0.00,,,0.00,WeatherTracker,2015-05-28 21:05:00,
2015-05-28 17:10:00,82.2,69.7,30.04,ESE,119,8.0,0.0,66,0.00,,,0.00,WeatherTracker,2015-05-28 21:10:00,
2015-05-28 17:15:00,81.9,69.4,30.04,East,86,5.0,0.0,66,0.00,,,0.00,WeatherTracker,2015-05-28 21:15:00,
2015-05-28 17:20:00,81.6,69.6,30.04,ENE,69,1.0,0.0,67,0.00,,,0.00,WeatherTracker,2015-05-28 21:20:00,
2015-05-28 17:25:00,81.8,69.3,30.04,NE,49,12.0,0.0,66,0.00,,,0.00,WeatherTracker,2015-05-28 21:25:00,
2015-05-28 17:30:00,81.8,69.7,30.04,North,351,4.0,0.0,67,0.00,,,0.00,WeatherTracker,2015-05-28 21:30:00,
2015-05-28 17:35:00,81.7,69.2,30.04,NE,47,6.0,0.0,66,0.00,,,0.00,WeatherTracker,2015-05-28 21:35:00,
2015-05-28 17:40:00,81.5,69.5,30.04,NNE,18,4.0,0.0,67,0.00,,,0.00,WeatherTracker,2015-05-28 21:40:00,
2015-05-28 17:45:00,81.2,70.0,30.04,ENE,71,0.0,0.0,69,0.00,,,0.00,WeatherTracker,2015-05-28 21:45:00,
2015-05-28 17:50:00,81.0,69.4,30.04,ENE,66,5.0,0.0,68,0.00,,,0.00,WeatherTracker,2015-05-28 21:50:00,
2015-05-28 17:55:00,80.7,69.1,30.04,ENE,77,2.0,0.0,68,0.00,,,0.00,WeatherTracker,2015-05-28 21:55:00,
2015-05-28 18:00:00,80.7,69.6,30.04,SSE,155,6.0,0.0,69,0.00,,,0.00,WeatherTracker,2015-05-28 22:00:00,
2015-05-28 18:05:00,80.8,69.7,30.04,NE,44,4.0,0.0,69,0.00,,,0.00,WeatherTracker,2015-05-28 22:05:00,
2015-05-28 18:10:00,80.9,69.3,30.04,NNE,32,5.0,0.0,68,0.00,,,0.00,WeatherTracker,2015-05-28 22:10:00,
2015-05-28 18:15:00,80.7,69.6,30.04,ENE,67,2.0,0.0,69,0.00,,,0.00,WeatherTracker,2015-05-28 22:15:00,
2015-05-28 18:21:00,80.7,69.1,30.04,West,261,2.0,0.0,68,0.00,,,0.00,WeatherTracker,2015-05-28 22:21:00,
2015-05-28 18:26:00,80.6,69.5,30.04,ENE,73,1.0,0.0,69,0.00,,,0.00,WeatherTracker,2015-05-28 22:26:00,
2015-05-28 18:31:00,80.6,69.5,30.04,NE,40,5.0,0.0,69,0.00,,,0.00,WeatherTracker,2015-05-28 22:31:00,
2015-05-28 18:36:00,80.6,69.5,30.04,ENE,64,2.0,0.0,69,0.00,,,0.00,WeatherTracker,2015-05-28 22:36:00,
2015-05-28 18:41:00,80.7,69.6,30.04,ESE,114,9.0,0.0,69,0.00,,,0.00,WeatherTracker,2015-05-28 22:41:00,
2015-05-28 18:46:00,80.9,69.8,30.04,ENE,74,2.0,0.0,69,0.00,,,0.00,WeatherTracker,2015-05-28 22:46:00,
2015-05-28 18:51:00,81.2,69.6,30.05,NNE,29,5.0,0.0,68,0.00,,,0.00,WeatherTracker,2015-05-28 22:51:00,
2015-05-28 18:56:00,81.0,69.0,30.05,NE,53,3.0,0.0,67,0.00,,,0.00,WeatherTracker,2015-05-28 22:56:00,
2015-05-28 19:01:00,81.0,69.4,30.04,NE,38,7.0,0.0,68,0.00,,,0.00,WeatherTracker,2015-05-28 23:01:00,
2015-05-28 19:06:00,80.9,68.9,30.04,NE,36,3.0,0.0,67,0.00,,,0.00,WeatherTracker,2015-05-28 23:06:00,
2015-05-28 19:11:00,80.7,68.7,30.04,SE,128,6.0,0.0,67,0.00,,,0.00,WeatherTracker,2015-05-28 23:11:00,
2015-05-28 19:16:00,80.6,69.0,30.05,East,80,2.0,0.0,68,0.00,,,0.00,WeatherTracker,2015-05-28 23:16:00,
2015-05-28 19:21:00,80.5,68.5,30.05,East,79,4.0,0.0,67,0.00,,,0.00,WeatherTracker,2015-05-28 23:21:00,
2015-05-28 19:26:00,80.3,68.8,30.04,ENE,65,3.0,0.0,68,0.00,,,0.00,WeatherTracker,2015-05-28 23:26:00,